Regional Weather Roundup
Issued by NWS

Home | Current Version | Previous Version | Graphics & Text | Print | Product List | Glossary On
Versions: 1 2 3 4 5 6 7 8 9 10 11 12 13 14 15 16 17 18 19 20 21 22 23 24 25 26 27 28 29 30 31 32 33 34 35 36 37 38 39 40 41 42 43 44 45 46 47 48 49 50
000
ASUS43 KFSD 192002
RWRSD

WEATHER ROUNDUP FOR SOUTH DAKOTA
NATIONAL WEATHER SERVICE SIOUX FALLS SD
300 PM CDT THU APR 19 2018

NOTE: "FAIR" INDICATES FEW OR NO CLOUDS BELOW 12,000 FEET WITH NO
SIGNIFICANT WEATHER AND/OR OBSTRUCTIONS TO VISIBILITY.


SDZ001>005-009-010-012>017-192100-
NORTHWEST AND NORTH CENTRAL SOUTH DAKOTA

CITY           SKY/WX    TMP DP  RH WIND       PRES   REMARKS
BUFFALO          N/A     57  26  30 SE16G26   30.18F
FAITH            N/A     53  32  44 SE13      30.30F
MOBRIDGE       SUNNY     55  30  38 SE9       30.35F
$$

SDZ012>016-024>037-041>051-057-063-072>074-192100-
SOUTHWEST AND SOUTH CENTRAL SOUTH DAKOTA

CITY           SKY/WX    TMP DP  RH WIND       PRES   REMARKS
RAPID CTY ARPT PTSUNNY   57  33  40 SE20G28   30.24F
PIERRE         MOSUNNY   51  30  44 S10G20    30.37F
CUSTER         MOSUNNY   48  24  39 SE10G26   30.22F
ELLSWORTH AFB  PTSUNNY   58  33  39 S14G23    30.23F
PHILIP         MOSUNNY   56  31  38 SE13G23   30.31F
PINE RIDGE     MOSUNNY   59  30  33 SE20G25   30.24F
SPEARFISH      FAIR      59  25  27 S20       30.18F
WINNER         FAIR      47  26  44 SE12      30.40F
$$

SDZ004>011-016>023-039-040-192100-
NORTHEAST SOUTH DAKOTA

CITY           SKY/WX    TMP DP  RH WIND       PRES   REMARKS
ABERDEEN       SUNNY     56  31  38 VRB6      30.42S
WATERTOWN      SUNNY     48  27  44 W8        30.43F
BROOKINGS      SUNNY     46  21  37 S7        30.45F
SISSETON         N/A     54  28  36 SW8       30.42F
$$

SDZ017-020-022-023-036>040-048>070-192100-
SOUTHEAST SOUTH DAKOTA

CITY           SKY/WX    TMP DP  RH WIND       PRES   REMARKS
SIOUX FALLS    MOSUNNY   46  27  47 CALM      30.47F
HURON          SUNNY     44  28  53 S10       30.45F
CHAMBERLAIN    MOSUNNY   49  33  54 SE13      30.42S
MITCHELL       SUNNY     45  33  63 CALM      30.46F
YANKTON        SUNNY     49  28  44 VRB6      30.45F
$$

ABBREVIATIONS USED IN REMARKS
   TC - TEMPERATURE IN CELSIUS
  WCI - WIND CHILL INDEX
   HX - HEAT INDEX
  VSB - VISIBILITY





USA.gov is the U.S. government's official web portal to all federal, state and local government web resources and services.